カタログに戻る

FENGYUN 1C DEB

運用中SSO
NORAD 31455·DEBRIS·🇨🇳 China

打ち上げ May 10, 1999 から Taiyuan Satellite Launch Center

Loading…

次のパス (今後24時間)

TLE

最新Source: Space-Track

元期: Sep 14, 2026, 05:05 UTC

1 31455U 99025BUT 26257.21218518  .00000373  00000-0  18355-3 0  9991
2 31455  98.6003 238.9111 0216925 345.2143  14.2750 14.11718050999901

AllMySatでFENGYUN 1C DEBをリアルタイム追跡

Download on the App Store